Weather observations for the past three days for
Cocoa - Patrick Air Force Base
Metric (Imperial)
Date Time (edt) Wind (kph) Vis. (km) Weather Sky Cond. Temperature (ºC) Relative Humidity Wind Chill (°C) Heat Index (°C) Pressure Precipitation (cm)
Air Dwpt 6 hour altimeter (cm) sea level (mb) 1 hr 3 hr 6 hr
Max. Min.
31 06:55 N 6 16.09 Fair CLR 26.5 24.9 91% 29 76.12 1015.3
31 05:55 NW 9 16.09 Light Rain CLR 27.3 25.3 89% 31 76.1 1015.0
31 04:55 Calm 16.09 Fair CLR 26.3 24.7 91% 29 76.1 1015.0 0.28
31 03:55 Calm 16.09 Fair CLR 26.3 24.5 90% 29 76.1 1015.0
31 02:55 S 6 16.09 Light Rain CLR 26.8 24.2 86% 30 76.12 1015.3 0.25
31 01:55 NE 11 8.05 Heavy Rain Fog/Mist SCT005 SCT021 26.1 24.1 27.4 26 89% 28 76.17 1016.0 0.66 0.66
31 00:55 Calm 16.09 Fair CLR 27.1 25.1 89% 31 76.2 1016.3
30 23:55 Calm 16.09 Fair CLR 27 25.2 90% 31 76.23 1016.7
30 22:55 NE 6 16.09 Fair CLR 26 24.6 92% 28 76.23 1016.7
30 21:55 NE 6 16.09 Fair CLR 26.5 24.5 89% 29 76.23 1016.7
30 20:55 NE 11 16.09 Fair CLR 26.8 23.6 83% 30 76.23 1016.7
30 19:55 E 6 16.09 Fair CLR 26.7 24.1 28.5 25.3 86% 30 76.23 1016.7 0.05
30 18:55 NE 6 16.09 Fair CLR 28 23.3 76% 31 76.15 1015.7
30 17:55 Calm 16.09 Light Rain CLR 28.2 21.9 69% 31 76.12 1015.3
30 16:55 N 6 16.09 Light Rain CLR 27.7 22.8 75% 31 76.15 1015.7 0.05
30 15:55 NE 7 16.09 Light Rain CLR 26.7 23.7 84% 29 76.2 1016.3
30 14:55 Calm 16.09 Fair CLR 25.9 23.1 85% 28 76.2 1016.3 0.05
30 13:55 SE 17 16.09 Fair CLR 25.8 23.8 31.2 25.8 89% 28 76.3 1017.7
30 12:55 S 22 16.09 Thunderstorm Drizzle FEW009 26.6 23.4 83% 29 76.35 1018.4
30 11:55 E 15 16.09 Thunderstorm in Vicinity Light Rain CLR 29.4 25.5 80% 36 76.3 1017.7
30 09:55 W 6 16.09 Fair CLR 30.9 24.3 68% 37 76.33 1018.0
30 08:55 Calm 16.09 Light Drizzle CLR 28.5 25.3 83% 34 76.28 1017.4
30 07:55 SE 6 16.09 Fair CLR 27.7 25.1 28.3 27.3 86% 32 76.23 1016.7
30 06:55 SE 11 16.09 Fair CLR 27.7 24.5 83% 32 76.17 1016.0
30 05:55 E 11 16.09 A Few Clouds FEW021 28 25.2 85% 33 76.12 1015.3
30 04:55 E 13 16.09 Fair CLR 28 25 84% 33 76.12 1015.3
30 03:55 SE 15 16.09 Fair CLR 28 24.8 83% 33 76.17 1016.0
30 02:55 SE 15 16.09 Heavy Rain CLR 27.8 24.6 83% 32 76.23 1016.7
30 01:55 SE 13 16.09 Fair CLR 27.9 24.1 28 27 80% 32 76.25 1017.0
30 00:55 S 7 16.09 Drizzle CLR 27.2 24.6 86% 31 76.28 1017.4
29 23:55 S 7 16.09 Fair CLR 27.5 23.5 79% 31 76.28 1017.4
29 22:55 Calm 16.09 Fair CLR 27.7 23.7 79% 31 76.25 1017.0
29 21:55 E 11 16.09 Fair CLR 27.7 23.9 80% 31 76.2 1016.3
29 20:55 Calm 16.09 Fair CLR 27.4 24.6 85% 31 76.25 1017.0
29 19:55 N 9 16.09 Light Drizzle CLR 27.3 24.5 32.3 26.7 85% 31 76.15 1015.7
29 18:55 E 6 16.09 Fair CLR 27.3 23.5 80% 30 76.28 1017.4
29 17:55 SW 9 16.09 Light Drizzle CLR 27.5 23.1 77% 31 76.25 1017.0
29 16:55 S 31 G 41 16.09 Light Drizzle FEW014 30.4 25.6 76% 38 76.25 1017.0
29 15:55 E 24 16.09 Fair CLR 32.3 25.1 66% 40 76.23 1016.7
29 14:55 E 15 16.09 Fair CLR 31.6 27 77% 42 76.28 1017.4
29 13:55 E 15 16.09 Light Rain FEW190 31.4 26.4 31.4 26.1 75% 40 76.3 1017.7
29 12:55 NE 17 16.09 Fair CLR 30.7 26.6 79% 39 76.35 1018.4
29 11:55 NE 17 16.09 Fair CLR 31.1 25.2 71% 38 76.35 1018.4
29 10:55 NE 11 16.09 Fair CLR 30.4 25.2 74% 37 76.38 1018.7
29 09:55 NE 11 16.09 Fair CLR 29 25.4 81% 35 76.33 1018.0
29 08:55 Calm 16.09 Light Drizzle FEW220 27.7 25.3 87% 32 76.3 1017.7
29 07:55 N 9 16.09 Fair CLR 26.2 24.4 27 25.7 90% 29 76.3 1017.7
29 06:55 NE 9 16.09 Light Rain FEW070 25.8 24.5 93% 28 76.25 1017.0
29 05:55 NE 6 12.87 Thunderstorm in Vicinity CLR 26 24.7 93% 28 76.23 1016.7
29 04:55 N 9 16.09 Fair CLR 26.1 24.7 92% 28 76.2 1016.3
29 03:55 NE 7 16.09 Fair CLR 26.3 24.9 92% 29 76.2 1016.3
29 02:55 N 7 16.09 Partly Cloudy SCT026 27 25.2 90% 31 76.23 1016.7
29 01:55 NW 9 16.09 Fair CLR 26.9 24.5 28.5 25.8 87% 30 76.25 1017.0
29 00:55 NW 13 16.09 Fair CLR 27.2 24.8 87% 31 76.25 1017.0
28 23:55 NW 7 16.09 Fair CLR 26.4 23.8 86% 29 76.25 1017.0
28 22:55 W 9 16.09 Fair CLR 28 24.2 80% 32 76.23 1016.7
28 21:55 SE 7 16.09 Fair CLR 28 24 79% 32 76.17 1016.0
28 20:55 E 17 16.09 Drizzle FEW220 27.3 22.7 76% 30 76.1 1015.0
28 19:55 NW 35 G 48 16.09 Thunderstorm Light Drizzle and Breezy FEW020 SCT026 OVC034 25.9 22.2 32.2 25.9 80% 27 76.23 1016.7
28 18:55 SE 15 16.09 Thunderstorm in Vicinity CLR 29.4 25.7 81% 36 76.15 1015.7
28 17:55 SE 19 16.09 Fair CLR 31.2 26 74% 39 76.15 1015.7
28 16:55 SE 17 16.09 Fair CLR 31.7 26.2 73% 40 76.1 1015.0
28 15:55 SE 17 16.09 Fair CLR 31.9 25.9 71% 40 76.17 1016.0
28 14:55 E 17 16.09 Fair CLR 31.6 26.3 74% 40 76.2 1016.3
28 13:55 E 17 16.09 Fair CLR 31.5 26.2 32 27 73% 40 76.25 1017.0
28 12:55 E 15 16.09 Fair CLR 31.3 26.1 74% 40 76.3 1017.7
28 11:55 E 9 16.09 Fair CLR 31 25.3 72% 38 76.33 1018.0
28 09:55 SW 7 16.09 Fair CLR 29.4 24.7 76% 35 76.28 1017.4
28 08:55 SW 9 16.09 Fair CLR 28.9 24.2 76% 34 76.28 1017.4
28 07:55 S 7 16.09 Fair CLR 26.9 24.5 26.9 25.3 87% 30 76.23 1016.7
Date Time (edt) Wind (kph) Vis. (km) Weather Sky Cond. Air Dwpt Max. Min. Relative Humidity Wind Chill (°C) Heat Index (°C) altimeter (cm) sea level (mb) 1 hr 3 hr 6 hr
6 hour
Temperature (ºC) Pressure Precipitation (cm)